Location: Monrovia
(34.7865°N, 86.7139°W)
Time: 00:21:45
(UTC+00:00)

Cosmos 44 - Pass Details

Date: 14 July 2020
Orbit: 586 x 776 km, 65.1° (Epoch: 12 August)

Event Time Altitude Azimuth Distance (km) Brightness Sun altitude
Rises 02:42:21 0° 211° (SSW) 2,798 6.3 -17.7°
Reaches altitude 10° 02:44:35 10° 213° (SSW) 1,900 5.4 -18.1°
Maximum altitude 02:48:50 75° 299° (WNW) 612 3.1 -18.7°
Drops below altitude 10° 02:53:11 10° 25° (NNE) 1,944 5.9 -19.3°
Sets 02:55:29 0° 27° (NNE) 2,871 6.7 -19.6°
